When you browse on this site, cookies collect data to enhance your experience and personalize the content and advertising you see.
Visit our Privacy Policy to learn more. By continuing to use the site, you agree to this use of cookies and data.
  • In Österreich
  • Länderverzeichnis
  • Für 7 Tage
  • Wassertemperatur
  • Wetterkarte
  • News
  • Widgets
  • user-avatar
    Anmelden

    Stündliche Wetter Ozernyy

    Heute, 31 Mai, Sonntag

    Zeit Temperatur Niederschläge Wind Luftdruck Luftfeuchtigkeit
    00:00 +12°C° 0 mm 5 m/S 738 mmHg 95%
    01:00 +12°C° 0 mm 5 m/S 738 mmHg 95%
    02:00 +11°C° 0 mm 4 m/S 739 mmHg 95%
    03:00 +11°C° 0 mm 4 m/S 739 mmHg 95%
    04:00 +11°C° 0 mm 4 m/S 739 mmHg 96%
    05:00 +10°C° 0 mm 3 m/S 740 mmHg 97%
    06:00 +11°C° 0 mm 4 m/S 740 mmHg 94%
    07:00 +12°C° 0 mm 4 m/S 741 mmHg 90%
    08:00 +13°C° 0 mm 4 m/S 741 mmHg 87%
    09:00 +14°C° 0.3 mm 4 m/S 741 mmHg 86%
    10:00 +16°C° 0.3 mm 3 m/S 742 mmHg 84%
    11:00 +16°C° 0.3 mm 3 m/S 742 mmHg 83%
    12:00 +17°C° 1 mm 4 m/S 743 mmHg 81%
    13:00 +18°C° 1 mm 4 m/S 743 mmHg 80%
    14:00 +18°C° 1 mm 4 m/S 743 mmHg 78%
    15:00 +17°C° 1 mm 5 m/S 744 mmHg 81%
    16:00 +16°C° 1 mm 5 m/S 744 mmHg 83%
    17:00 +16°C° 1 mm 6 m/S 744 mmHg 86%
    18:00 +14°C° 0.2 mm 6 m/S 745 mmHg 87%
    19:00 +13°C° 0.2 mm 6 m/S 745 mmHg 89%
    20:00 +11°C° 0.2 mm 6 m/S 746 mmHg 90%
    21:00 +11°C° 0 mm 6 m/S 746 mmHg 89%
    22:00 +10°C° 0 mm 5 m/S 746 mmHg 88%
    23:00 +9°C° 0 mm 5 m/S 747 mmHg 88%

    Morgen, 1 Juni, Montag

    Zeit Temperatur Niederschläge Wind Luftdruck Luftfeuchtigkeit
    00:00 +10°C° 0 mm 4 m/S 747 mmHg 89%
    01:00 +8°C° 0 mm 4 m/S 747 mmHg 90%
    02:00 +8°C° 0 mm 4 m/S 747 mmHg 92%
    03:00 +7°C° 0 mm 4 m/S 747 mmHg 90%
    04:00 +7°C° 0 mm 4 m/S 747 mmHg 88%
    05:00 +7°C° 0 mm 5 m/S 748 mmHg 86%
    06:00 +8°C° 0 mm 5 m/S 748 mmHg 77%
    07:00 +9°C° 0 mm 6 m/S 748 mmHg 69%
    08:00 +10°C° 0 mm 6 m/S 749 mmHg 60%
    09:00 +11°C° 0 mm 6 m/S 749 mmHg 58%
    10:00 +11°C° 0 mm 6 m/S 749 mmHg 56%
    11:00 +13°C° 0 mm 6 m/S 749 mmHg 55%
    12:00 +13°C° 0.1 mm 6 m/S 749 mmHg 54%
    13:00 +13°C° 0.1 mm 6 m/S 749 mmHg 54%
    14:00 +13°C° 0.1 mm 6 m/S 748 mmHg 53%
    15:00 +13°C° 0.1 mm 6 m/S 748 mmHg 56%
    16:00 +13°C° 0.1 mm 6 m/S 748 mmHg 59%
    17:00 +11°C° 0.1 mm 6 m/S 748 mmHg 62%
    18:00 +10°C° 0.1 mm 5 m/S 748 mmHg 69%
    19:00 +10°C° 0.1 mm 4 m/S 748 mmHg 75%
    20:00 +9°C° 0.1 mm 3 m/S 748 mmHg 81%
    21:00 +8°C° 0 mm 3 m/S 748 mmHg 84%
    22:00 +6°C° 0 mm 4 m/S 748 mmHg 87%
    23:00 +6°C° 0 mm 4 m/S 748 mmHg 90%

    übermorgen, 2 Juni, Dienstag

    Zeit Temperatur Niederschläge Wind Luftdruck Luftfeuchtigkeit
    00:00 +6°C° 0 mm 4 m/S 747 mmHg 90%
    01:00 +6°C° 0 mm 4 m/S 747 mmHg 89%
    02:00 +6°C° 0 mm 4 m/S 746 mmHg 89%
    03:00 +6°C° 0 mm 4 m/S 746 mmHg 89%
    04:00 +5°C° 0 mm 4 m/S 746 mmHg 90%
    05:00 +5°C° 0 mm 4 m/S 745 mmHg 91%
    06:00 +6°C° 0 mm 5 m/S 745 mmHg 88%
    07:00 +7°C° 0 mm 5 m/S 744 mmHg 85%
    08:00 +8°C° 0 mm 6 m/S 744 mmHg 82%
    09:00 +7°C° 0.7 mm 6 m/S 744 mmHg 86%
    10:00 +7°C° 0.7 mm 6 m/S 743 mmHg 90%
    11:00 +7°C° 0.7 mm 6 m/S 743 mmHg 94%
    12:00 +7°C° 0.7 mm 6 m/S 742 mmHg 94%
    13:00 +7°C° 0.7 mm 6 m/S 742 mmHg 94%
    14:00 +7°C° 0.7 mm 6 m/S 742 mmHg 94%
    15:00 +7°C° 0.4 mm 6 m/S 741 mmHg 93%
    16:00 +7°C° 0.4 mm 6 m/S 741 mmHg 93%
    17:00 +7°C° 0.4 mm 5 m/S 740 mmHg 93%
    18:00 +7°C° 0.1 mm 5 m/S 740 mmHg 94%
    19:00 +8°C° 0.1 mm 4 m/S 740 mmHg 95%
    20:00 +8°C° 0.1 mm 4 m/S 739 mmHg 96%
    21:00 +9°C° 0 mm 3 m/S 739 mmHg 96%
    22:00 +9°C° 0 mm 3 m/S 739 mmHg 97%
    23:00 +9°C° 0 mm 2 m/S 739 mmHg 98%

    3 Juni, Mittwoch

    Zeit Temperatur Niederschläge Wind Luftdruck Luftfeuchtigkeit
    00:00 +8°C° 0 mm 2 m/S 739 mmHg 98%
    01:00 +8°C° 0 mm 3 m/S 738 mmHg 98%
    02:00 +7°C° 0 mm 3 m/S 738 mmHg 98%
    03:00 +7°C° 0 mm 3 m/S 738 mmHg 98%
    04:00 +7°C° 0 mm 3 m/S 738 mmHg 98%
    05:00 +7°C° 0 mm 3 m/S 738 mmHg 97%
    06:00 +8°C° 0.1 mm 3 m/S 738 mmHg 96%
    07:00 +8°C° 0.1 mm 3 m/S 738 mmHg 94%
    08:00 +9°C° 0.1 mm 3 m/S 739 mmHg 92%
    09:00 +10°C° 0.4 mm 3 m/S 739 mmHg 91%
    10:00 +10°C° 0.4 mm 4 m/S 739 mmHg 90%
    11:00 +10°C° 0.4 mm 4 m/S 739 mmHg 89%
    12:00 +11°C° 0.5 mm 4 m/S 739 mmHg 86%
    13:00 +12°C° 0.5 mm 4 m/S 739 mmHg 83%
    14:00 +13°C° 0.5 mm 4 m/S 739 mmHg 80%
    15:00 +13°C° 0.7 mm 3 m/S 739 mmHg 81%
    16:00 +13°C° 0.7 mm 3 m/S 738 mmHg 82%
    17:00 +14°C° 0.7 mm 3 m/S 738 mmHg 82%
    18:00 +12°C° 0.5 mm 3 m/S 738 mmHg 86%
    19:00 +12°C° 0.5 mm 2 m/S 738 mmHg 90%
    20:00 +10°C° 0.5 mm 2 m/S 738 mmHg 93%
    21:00 +9°C° 0 mm 2 m/S 739 mmHg 94%
    22:00 +10°C° 0 mm 1 m/S 739 mmHg 95%
    23:00 +9°C° 0 mm 1 m/S 739 mmHg 96%

    4 Juni, Donnerstag

    Zeit Temperatur Niederschläge Wind Luftdruck Luftfeuchtigkeit
    00:00 +8°C° 0 mm 1 m/S 740 mmHg 97%
    01:00 +8°C° 0 mm 1 m/S 740 mmHg 97%
    02:00 +7°C° 0 mm 1 m/S 740 mmHg 98%
    03:00 +8°C° 0.1 mm 1 m/S 740 mmHg 98%
    04:00 +8°C° 0.1 mm 1 m/S 740 mmHg 98%
    05:00 +8°C° 0.1 mm 1 m/S 740 mmHg 99%
    06:00 +9°C° 0.1 mm 1 m/S 741 mmHg 98%
    07:00 +10°C° 0.1 mm 1 m/S 741 mmHg 96%
    08:00 +10°C° 0.1 mm 1 m/S 741 mmHg 95%
    09:00 +11°C° 0.1 mm 1 m/S 741 mmHg 95%
    10:00 +11°C° 0.1 mm 1 m/S 741 mmHg 94%
    11:00 +11°C° 0.1 mm 1 m/S 742 mmHg 93%
    12:00 +12°C° 0.2 mm 2 m/S 742 mmHg 90%
    13:00 +13°C° 0.2 mm 2 m/S 742 mmHg 87%
    14:00 +14°C° 0.2 mm 2 m/S 741 mmHg 84%
    15:00 +14°C° 0.2 mm 2 m/S 741 mmHg 80%
    16:00 +15°C° 0.2 mm 2 m/S 741 mmHg 77%
    17:00 +15°C° 0.2 mm 2 m/S 741 mmHg 74%
    18:00 +14°C° 0 mm 2 m/S 741 mmHg 77%
    19:00 +13°C° 0 mm 2 m/S 741 mmHg 81%
    20:00 +13°C° 0 mm 1 m/S 741 mmHg 85%
    21:00 +10°C° 0 mm 2 m/S 741 mmHg 88%
    22:00 +9°C° 0 mm 2 m/S 741 mmHg 91%
    23:00 +8°C° 0 mm 2 m/S 741 mmHg 95%

    5 Juni, Freitag

    Zeit Temperatur Niederschläge Wind Luftdruck Luftfeuchtigkeit
    00:00 +8°C° 0 mm 2 m/S 741 mmHg 95%
    01:00 +8°C° 0 mm 2 m/S 741 mmHg 96%
    02:00 +7°C° 0 mm 2 m/S 741 mmHg 96%
    03:00 +7°C° 0 mm 2 m/S 741 mmHg 96%
    04:00 +7°C° 0 mm 2 m/S 741 mmHg 96%
    05:00 +7°C° 0 mm 2 m/S 741 mmHg 96%
    06:00 +9°C° 0 mm 2 m/S 741 mmHg 90%
    07:00 +13°C° 0 mm 2 m/S 742 mmHg 84%
    08:00 +15°C° 0 mm 2 m/S 742 mmHg 77%
    09:00 +16°C° 0.2 mm 2 m/S 742 mmHg 76%
    10:00 +17°C° 0.2 mm 2 m/S 742 mmHg 75%
    11:00 +18°C° 0.2 mm 3 m/S 742 mmHg 73%
    12:00 +18°C° 0.6 mm 3 m/S 741 mmHg 72%
    13:00 +19°C° 0.6 mm 3 m/S 741 mmHg 72%
    14:00 +20°C° 0.6 mm 3 m/S 741 mmHg 71%
    15:00 +20°C° 0.2 mm 3 m/S 741 mmHg 70%
    16:00 +20°C° 0.2 mm 3 m/S 741 mmHg 69%
    17:00 +20°C° 0.2 mm 3 m/S 741 mmHg 68%
    18:00 +18°C° 0.2 mm 2 m/S 741 mmHg 74%
    19:00 +17°C° 0.2 mm 2 m/S 741 mmHg 81%
    20:00 +15°C° 0.2 mm 1 m/S 741 mmHg 88%
    21:00 +14°C° 0 mm 1 m/S 742 mmHg 89%
    22:00 +14°C° 0 mm 1 m/S 742 mmHg 91%
    23:00 +13°C° 0 mm 1 m/S 742 mmHg 92%
    Mehr zeigen